Tracking 31027 objects as of 19-Jul-2025
HD Live streaming from Space Station
objects crossing your sky now

UNHA 3 R/B

Track UNHA 3 R/B now!
10-day predictions


NORAD ID: 39027
Int'l Code: 2012-072B
Perigee: 351.2 km
Apogee: 369.2 km
Inclination: 97.5 °
Period: 91.6 minutes
Semi major axis: 6731 km
RCS: 1.274 m2 (large)
Launch date: December 12, 2012
Source: North Korea (NKOR)
Launch site: Yunsong, DPRK (YUN)

Note: This is a ROCKET BODY
Your satellite tracking list
SKOLTECH-B2
Track 1 satellite(s)




NASA's NSSDC Master Catalog

Two Line Element Set (TLE):
1 39027U 12072B   25199.88885030  .00057156  00000-0  43417-3 0  9995
2 39027  97.5447 204.3126 0013345 299.3705  60.6224 15.72036435666529
Source of the keplerian elements: AFSPC